User: anonymous   Login
Location: ?????????
(44.2517°N, 135.2292°E)
Time: 20:04:32
(UTC+00:00)
Language:

Cosmos 2298 Rocket - Orbit

View from above orbital plane
View from above orbital plane
View from above satellite
View from above satellite

Ground track
Ground track

The orbit is defined by the following mean orbital elements,

1 23432U          26129.41577115 +.00000000 +00000-0 +82677-4 0 00002
2 23432  74.0297 115.5517 0006663 260.1771 251.8979 14.34453361    00
Epoch (UTC): 09 May 2026 09:58:42
Eccentricity: 0.0006663
inclination: 74.0297°
perigee height: 772 km
apogee height: 782 km
right ascension of ascending node: 115.5517°
argument of perigee: 260.1771°
revolutions per day: 14.34453361
mean anomaly at epoch: 251.8979°

The dashed part of the orbit path shows where the satellite is in the earth's shadow,  

DLR